[[{"header":{"parameterUnit":"m.s-1","parameterCategory":1,"la1":30.2992,"la2":30.254,"lo1":-89.0895,"lo2":-89.0443,"dy":0.0025,"dx":0.0025,"nx":19,"ny":19,"refTime":"2026-05-12T21:00:00:Z","depth":0,"parameterNumber":2,"parameterNumberName":"U-component_of_WINDS"},"data":[0,0,0,-1.5006,-1.5006,-1.5012,-1.5012,-1.5001,-1.5001,0,0,0,0,0,0,0,0,0,0,0,-1.4994,-1.4994,-1.5006,-1.5006,-1.5012,-1.5012,-1.5001,-1.5001,0,0,0,0,0,0,0,0,0,0,0,-1.4995,-1.4994,-1.4994,-1.5006,-1.5012,-1.5012,-1.5001,-1.5003,0,0,0,0,0,0,0,0,0,0,-1.5,-1.498,-1.4994,-1.4994,-1.5006,-1.5012,-1.5012,-1.5004,-1.5003,-1.4991,0,-1.4979,0,-1.4989,-1.4999,-1.4999,0,0,0,-1.5013,-1.498,-1.4991,-1.4994,-1.5006,-1.5012,-1.5012,-1.5003,-1.5003,-1.499,-1.4979,-1.4979,-1.4989,-1.4999,-1.4999,-1.4905,-1.4904,0,0,-1.5013,-1.499,-1.4991,-1.499,-1.499,-1.5011,-1.5012,-1.5003,-1.4989,-1.4979,-1.4979,-1.4989,-1.4999,-1.4999,-1.4906,-1.4905,0,0,0,-1.5007,-1.4989,-1.5001,-1.499,-1.4993,-1.5011,-1.5012,-1.4989,-1.4995,-1.4979,-1.4989,-1.4999,-1.4998,-1.4907,-1.4905,-1.4843,0,0,0,-1.5007,-1.4986,-1.5,-1.4986,-1.4993,-1.4991,-1.4997,-1.4996,-1.4995,-1.4989,-1.4999,-1.4998,-1.4908,-1.4906,-1.4846,-1.4816,0,0,0,-1.4997,-1.4985,-1.4983,-1.4985,-1.4987,-1.4992,-1.4998,-1.4996,-1.5001,-1.4999,-1.4998,-1.4908,-1.4906,-1.485,-1.4822,-1.4782,0,0,0,-1.498,-1.4928,-1.4981,-1.4927,-1.4987,-1.4954,-1.4998,-1.4975,-1.4966,-1.4999,-1.4907,-1.4906,-1.4851,-1.4825,-1.4785,-1.4743,-1.4724,0,0,-1.4902,-1.4918,-1.4888,-1.4936,-1.4888,-1.4955,-1.4898,-1.4912,-1.4933,-1.4913,-1.4911,-1.4845,-1.4822,-1.4783,-1.463,-1.4614,0,0,0,-1.4855,-1.4833,-1.4825,-1.4815,-1.4825,-1.4829,-1.4854,-1.4859,-1.4843,-1.4918,-1.4823,-1.481,-1.4787,-1.4768,-1.4755,-1.4735,-1.4897,-1.4897,-1.4897,-1.471,-1.4739,-1.469,-1.4719,-1.4709,-1.4735,-1.4728,-1.4738,-1.4772,-1.4749,-1.4742,-1.4646,-1.4622,-1.4613,-1.4592,-1.4725,-1.4725,-1.4724,-1.4724,-1.4595,-1.4566,-1.4611,-1.4579,-1.461,-1.4584,-1.4605,-1.4629,-1.4607,-1.4654,-1.4636,-1.4681,-1.4595,-1.4578,-1.472,-1.4721,-1.4721,-1.4721,-1.4722,-1.45,-1.4491,-1.4498,-1.4485,-1.4472,-1.4504,-1.448,-1.451,-1.4537,-1.452,-1.4513,-1.4514,-1.4516,-1.4515,-1.4515,-1.4515,-1.4514,-1.4514,-1.4514,-1.4397,-1.4408,-1.4384,-1.4388,-1.4385,-1.4383,-1.4407,-1.4404,-1.4407,-1.443,-1.443,-1.4463,-1.4582,-1.4609,-1.4509,-1.451,-1.451,-1.4511,-1.4511,-1.4265,-1.4299,-1.4263,-1.4259,-1.4265,-1.4247,-1.4286,-1.4276,-1.4277,-1.4264,-1.4301,-1.4386,-1.4404,-1.4415,-1.4437,-1.4298,-1.4298,-1.4298,-1.4298,-1.4182,-1.4195,-1.4163,-1.4154,-1.4149,-1.418,-1.4134,-1.4152,-1.4175,-1.4177,-1.4202,-1.4235,-1.4245,-1.4258,-1.4272,-1.4293,-1.412,-1.412,-1.4119,-1.41,-1.4113,-1.407,-1.4094,-1.41,-1.4104,-1.4061,-1.4047,-1.4081,-1.4113,-1.4178,-1.4185,-1.424,-1.4257,-1.4287,-1.4308,-1.4348,0,0]},{"header":{"parameterUnit":"m.s-1","parameterCategory":1,"la1":30.2992,"la2":30.254,"lo1":-89.0895,"lo2":-89.0443,"dy":0.0025,"dx":0.0025,"nx":19,"ny":19,"refTime":"2026-05-12T21:00:00:Z","depth":0,"parameterNumber":3,"parameterNumberName":"V-component_of_WINDS"},"data":[0,0,0,-3.5303,-3.5304,-3.5336,-3.5336,-3.5378,-3.5378,0,0,0,0,0,0,0,0,0,0,0,-3.5294,-3.5295,-3.5303,-3.5304,-3.5336,-3.5336,-3.5378,-3.5378,0,0,0,0,0,0,0,0,0,0,0,-3.5294,-3.5295,-3.5295,-3.5304,-3.5336,-3.5336,-3.5378,-3.5353,0,0,0,0,0,0,0,0,0,0,-3.5321,-3.5315,-3.5294,-3.5295,-3.5304,-3.5336,-3.5336,-3.5352,-3.5355,-3.5364,0,-3.5373,0,-3.5377,-3.5381,-3.5382,0,0,0,-3.5302,-3.5312,-3.532,-3.5295,-3.5304,-3.5336,-3.5321,-3.5353,-3.5356,-3.5368,-3.5374,-3.5375,-3.5377,-3.5382,-3.5382,-3.5444,-3.5445,0,0,-3.5301,-3.53,-3.5318,-3.5323,-3.5318,-3.532,-3.5322,-3.5355,-3.5361,-3.5374,-3.5376,-3.5378,-3.5382,-3.5382,-3.5444,-3.5445,0,0,0,-3.5296,-3.5299,-3.5306,-3.5321,-3.5327,-3.5321,-3.5323,-3.536,-3.5362,-3.5377,-3.5379,-3.5382,-3.5383,-3.5444,-3.5444,-3.5463,0,0,0,-3.5295,-3.5296,-3.5305,-3.5305,-3.5326,-3.5344,-3.5327,-3.536,-3.5364,-3.5378,-3.5382,-3.5383,-3.5443,-3.5444,-3.5461,-3.5471,0,0,0,-3.5292,-3.5296,-3.5301,-3.5305,-3.5319,-3.5343,-3.5348,-3.5361,-3.5365,-3.5382,-3.5383,-3.5443,-3.5444,-3.546,-3.5469,-3.5489,0,0,0,-3.5287,-3.5315,-3.5301,-3.5333,-3.5319,-3.5355,-3.5347,-3.5373,-3.539,-3.5382,-3.5443,-3.5444,-3.546,-3.5468,-3.5487,-3.5506,-3.5513,0,0,-3.5321,-3.5319,-3.5337,-3.5327,-3.5365,-3.535,-3.5391,-3.5404,-3.5405,-3.5431,-3.5433,-3.5462,-3.5469,-3.5488,-3.5554,-3.556,0,0,0,-3.5348,-3.5362,-3.5372,-3.5389,-3.5402,-3.5414,-3.5423,-3.5429,-3.5451,-3.5419,-3.5474,-3.5478,-3.549,-3.5498,-3.5503,-3.5514,-3.5448,-3.5448,-3.5448,-3.5394,-3.5397,-3.5429,-3.5436,-3.5452,-3.5463,-3.5477,-3.5486,-3.5481,-3.5494,-3.5502,-3.5542,-3.5552,-3.5556,-3.5567,-3.5511,-3.5511,-3.5512,-3.5512,-3.5445,-3.5465,-3.5462,-3.5492,-3.5495,-3.5519,-3.5532,-3.5528,-3.5552,-3.5536,-3.5546,-3.5529,-3.5563,-3.5572,-3.5513,-3.5513,-3.5513,-3.5512,-3.5512,-3.5476,-3.5486,-3.5495,-3.5522,-3.5542,-3.5549,-3.5573,-3.5573,-3.5574,-3.5584,-3.5593,-3.5593,-3.5594,-3.5589,-3.5589,-3.5589,-3.5589,-3.5589,-3.5589,-3.5504,-3.5513,-3.5534,-3.5554,-3.5567,-3.5584,-3.5597,-3.5609,-3.5623,-3.5621,-3.5621,-3.5616,-3.5566,-3.5553,-3.5591,-3.5591,-3.5591,-3.5591,-3.559,-3.5554,-3.5544,-3.5576,-3.559,-3.5614,-3.5636,-3.5638,-3.5664,-3.5674,-3.5686,-3.568,-3.5642,-3.5639,-3.5635,-3.5625,-3.5679,-3.5679,-3.5679,-3.5679,-3.558,-3.558,-3.5615,-3.5637,-3.5658,-3.5665,-3.5702,-3.5714,-3.5724,-3.573,-3.5723,-3.5709,-3.5705,-3.5704,-3.5699,-3.5689,-3.5759,-3.5759,-3.5759,-3.5612,-3.5614,-3.5646,-3.5658,-3.5679,-3.5696,-3.5732,-3.5757,-3.5766,-3.5762,-3.5736,-3.5733,-3.5711,-3.5704,-3.5698,-3.5689,-3.5672,0,0]}]]